Showing default

FLOCK 4Q 20, 58313

Orbit data source: Space-Track

FLOCK 4Q 20, 58313 is a payload satellite owned by Planet (US) in LEO that was launched on Sat, 11 Nov 2023 UTC via an FALCON 9 launch vehicle from the Air Force Western Test Range (AFWTR). Payload-class satellites include a variety of spacecraft equipped with specific instruments for various scientific and technological missions. These include communications satellites like Starlink; space stations such as the ISS; scientific satellites like the Hubble; Earth observation satellites from companies like Planet Labs, Umbra, and HawkEye 360; GPS; miniature CubeSats for education and research; and military/defense satellites.

Not visible in the next 10 days
Identifier
58313, 2023-174BK
Orbit
LEO
Country
Flag of USUS
Related business
Manufacturer
Planet
Mission
Decayed Commercial Imaging
Bus & Motor
CUBESAT 3U, Unknown motor
Mass
5.7 kg wet, 5.7 kg dry
Launch date (UTC)
2023-11-11 (3 years ago)
Launch vehicle
FALCON 9
Launch site
Air Force Western Test Range (AFWTR)
Object type
Payload
Rocket body
Debris
Shape & HBR
Box + 2 Pan, 1.0 m
Radar Cross Section
0.072 m², Medium (>0.1 m² and < 1m²)

Expand to show TLE details & history
Last TLE update: 3 weeks ago

TLE from 3 weeks ago
0 FLOCK 4Q 20
1 58313U 23174BK  26150.02448566  .05164544  24339-5  20630-2 0  9994
2 58313  97.3607 247.8478 0013209 243.7936 116.1997 16.23415448143384
Epoch: 2026-05-30T00:35Z
TLE epoch observation values (Epoch: 2026-05-30T00:35:15.561Z)
Latitude
-0.00001°
Longitude
-8.51349°
Altitude
217.378 km
Speed
7.774 km/s
True Right ascension
16h 31m 23s
True Declination
0° 00' 00"
Sunlit
Object was in full shadow at epoch
Visualization orbit readout
Latitude
Unknown
Longitude
Unknown
Altitude
Unknown
Speed
Unknown
Apparent Right ascension
Unknown
Apparent Declination
Unknown
Sunlit
N/A
Visualization observer readout
Local Sidereal Time
21:36:31
Azimuth
Unknown
Elevation
Unknown
Doppler factor
Unknown
Orbital elements
Apogee altitude
215.821 km
Perigee altitude
198.424 km
Semi-major axis
6,585.259 km
Eccentricity
0.00132
Inclination
97.3607°
RAAN
247.8478°
Arg. of periapsis
243.7936°
True anomaly
116.33541°
Mean anomaly
116.1997°
Eccentric anomaly
116.26757°
Mean motion
4.06148 °/min
Orbital period
88.64 mins
BSTAR
0.002063
Loading maneuver chart data...
Computing Atmospheric mass density...

Documentation

Showing up to 5 results
|